• In Netherlands
  • List of Countries
  • For 7 days
  • Water Temperature
  • Satellite Maps
  • Weather Map
  • Weather Widgets
  • user-avatar
    Login

    Hourly Weather Porto-Novo

    Today, 25 May, Thursday

    Time Temperature Precipitation Wind Pressure Humidity
    00:00 +29°C° 0 mm 2 mps 758 mmHg 84%
    01:00 +29°C° 0.1 mm 2 mps 758 mmHg 85%
    02:00 +28°C° 0.1 mm 2 mps 757 mmHg 85%
    03:00 +28°C° 0.1 mm 2 mps 757 mmHg 86%
    04:00 +28°C° 0 mm 2 mps 757 mmHg 86%
    05:00 +28°C° 0 mm 2 mps 757 mmHg 85%
    06:00 +28°C° 0 mm 2 mps 758 mmHg 85%
    07:00 +30°C° 0 mm 3 mps 758 mmHg 75%
    08:00 +33°C° 0 mm 3 mps 758 mmHg 65%
    09:00 +35°C° 0 mm 3 mps 759 mmHg 54%
    10:00 +36°C° 0.1 mm 4 mps 758 mmHg 52%
    11:00 +37°C° 0.1 mm 4 mps 758 mmHg 49%
    12:00 +38°C° 0.1 mm 4 mps 758 mmHg 47%
    13:00 +37°C° 0.5 mm 5 mps 757 mmHg 50%
    14:00 +36°C° 0.5 mm 5 mps 757 mmHg 53%
    15:00 +35°C° 0.5 mm 5 mps 757 mmHg 56%
    16:00 +34°C° 1.2 mm 5 mps 757 mmHg 63%
    17:00 +32°C° 1.2 mm 4 mps 757 mmHg 70%
    18:00 +30°C° 1.2 mm 4 mps 758 mmHg 77%
    19:00 +29°C° 0.1 mm 3 mps 758 mmHg 78%
    20:00 +29°C° 0.1 mm 3 mps 759 mmHg 79%
    21:00 +29°C° 0.1 mm 3 mps 759 mmHg 80%
    22:00 +29°C° 0 mm 3 mps 759 mmHg 80%
    23:00 +29°C° 0 mm 2 mps 759 mmHg 81%

    Tomorrow, 26 May, Friday

    Time Temperature Precipitation Wind Pressure Humidity
    00:00 +28°C° 0 mm 2 mps 759 mmHg 81%
    01:00 +29°C° 0.2 mm 2 mps 758 mmHg 80%
    02:00 +29°C° 0.2 mm 2 mps 758 mmHg 80%
    03:00 +29°C° 0.2 mm 2 mps 758 mmHg 79%
    04:00 +29°C° 0 mm 2 mps 758 mmHg 80%
    05:00 +28°C° 0 mm 2 mps 758 mmHg 80%
    06:00 +28°C° 0 mm 2 mps 758 mmHg 81%
    07:00 +30°C° 0.2 mm 3 mps 758 mmHg 74%
    08:00 +31°C° 0.2 mm 3 mps 759 mmHg 68%
    09:00 +34°C° 0.2 mm 3 mps 759 mmHg 61%
    10:00 +32°C° 2.2 mm 2 mps 759 mmHg 65%
    11:00 +32°C° 2.2 mm 2 mps 759 mmHg 69%
    12:00 +31°C° 2.2 mm 2 mps 759 mmHg 72%
    13:00 +32°C° 0.9 mm 2 mps 758 mmHg 70%
    14:00 +32°C° 0.9 mm 2 mps 757 mmHg 67%
    15:00 +32°C° 0.9 mm 2 mps 757 mmHg 64%
    16:00 +32°C° 0.1 mm 2 mps 757 mmHg 67%
    17:00 +31°C° 0.1 mm 2 mps 757 mmHg 69%
    18:00 +30°C° 0.1 mm 2 mps 757 mmHg 71%
    19:00 +30°C° 0 mm 2 mps 758 mmHg 73%
    20:00 +29°C° 0 mm 2 mps 759 mmHg 75%
    21:00 +29°C° 0 mm 2 mps 759 mmHg 76%
    22:00 +28°C° 0 mm 2 mps 759 mmHg 77%
    23:00 +28°C° 0 mm 2 mps 759 mmHg 77%

    Day after tomorrow, 27 May, Saturday

    Time Temperature Precipitation Wind Pressure Humidity
    00:00 +28°C° 0 mm 2 mps 759 mmHg 78%
    01:00 +28°C° 0 mm 2 mps 758 mmHg 78%
    02:00 +28°C° 0 mm 2 mps 758 mmHg 79%
    03:00 +27°C° 0 mm 2 mps 758 mmHg 80%
    04:00 +27°C° 0 mm 2 mps 758 mmHg 81%
    05:00 +27°C° 0 mm 1 mps 758 mmHg 82%
    06:00 +27°C° 0 mm 1 mps 758 mmHg 83%
    07:00 +29°C° 0 mm 1 mps 759 mmHg 73%
    08:00 +31°C° 0 mm 2 mps 759 mmHg 64%
    09:00 +34°C° 0 mm 2 mps 760 mmHg 55%
    10:00 +35°C° 0 mm 2 mps 759 mmHg 51%
    11:00 +37°C° 0 mm 3 mps 759 mmHg 48%
    12:00 +38°C° 0 mm 3 mps 759 mmHg 44%
    13:00 +37°C° 0 mm 3 mps 758 mmHg 46%
    14:00 +37°C° 0 mm 4 mps 757 mmHg 48%
    15:00 +36°C° 0 mm 4 mps 756 mmHg 50%
    16:00 +35°C° 0 mm 4 mps 757 mmHg 56%
    17:00 +33°C° 0 mm 4 mps 757 mmHg 62%
    18:00 +32°C° 0 mm 4 mps 757 mmHg 69%
    19:00 +30°C° 0.1 mm 4 mps 758 mmHg 72%
    20:00 +30°C° 0.1 mm 4 mps 758 mmHg 75%
    21:00 +29°C° 0.1 mm 4 mps 759 mmHg 78%
    22:00 +29°C° 0.1 mm 4 mps 759 mmHg 79%
    23:00 +29°C° 0.1 mm 4 mps 759 mmHg 79%

    28 May, Sunday

    Time Temperature Precipitation Wind Pressure Humidity
    00:00 +29°C° 0.1 mm 4 mps 759 mmHg 80%
    01:00 +29°C° 0 mm 4 mps 758 mmHg 81%
    02:00 +29°C° 0 mm 3 mps 758 mmHg 81%
    03:00 +29°C° 0 mm 3 mps 758 mmHg 82%
    04:00 +29°C° 0.2 mm 3 mps 758 mmHg 82%
    05:00 +28°C° 0.2 mm 3 mps 758 mmHg 82%
    06:00 +28°C° 0.2 mm 3 mps 759 mmHg 83%
    07:00 +30°C° 0 mm 4 mps 759 mmHg 75%
    08:00 +33°C° 0 mm 4 mps 759 mmHg 68%
    09:00 +34°C° 0 mm 4 mps 760 mmHg 60%
    10:00 +35°C° 0 mm 5 mps 759 mmHg 58%
    11:00 +36°C° 0 mm 5 mps 759 mmHg 55%
    12:00 +36°C° 0 mm 5 mps 758 mmHg 52%
    13:00 +36°C° 0.5 mm 5 mps 758 mmHg 56%
    14:00 +35°C° 0.5 mm 5 mps 757 mmHg 59%
    15:00 +35°C° 0.5 mm 5 mps 756 mmHg 62%
    16:00 +34°C° 0.8 mm 5 mps 757 mmHg 67%
    17:00 +32°C° 0.8 mm 4 mps 758 mmHg 73%
    18:00 +30°C° 0.8 mm 4 mps 758 mmHg 79%
    19:00 +30°C° 0.1 mm 4 mps 759 mmHg 80%
    20:00 +30°C° 0.1 mm 4 mps 759 mmHg 81%
    21:00 +29°C° 0.1 mm 4 mps 760 mmHg 82%
    22:00 +29°C° 0.1 mm 4 mps 759 mmHg 83%
    23:00 +29°C° 0.1 mm 4 mps 759 mmHg 83%

    29 May, Monday

    Time Temperature Precipitation Wind Pressure Humidity
    00:00 +29°C° 0.1 mm 4 mps 759 mmHg 84%
    01:00 +29°C° 0 mm 4 mps 758 mmHg 84%
    02:00 +29°C° 0 mm 4 mps 758 mmHg 85%
    03:00 +29°C° 0 mm 4 mps 757 mmHg 85%
    04:00 +29°C° 0 mm 4 mps 757 mmHg 84%
    05:00 +29°C° 0 mm 4 mps 758 mmHg 84%
    06:00 +29°C° 0 mm 4 mps 758 mmHg 83%
    07:00 +30°C° 0 mm 4 mps 759 mmHg 77%
    08:00 +33°C° 0 mm 4 mps 759 mmHg 70%
    09:00 +34°C° 0 mm 4 mps 760 mmHg 63%
    10:00 +35°C° 0.4 mm 4 mps 759 mmHg 62%
    11:00 +35°C° 0.4 mm 5 mps 759 mmHg 61%
    12:00 +36°C° 0.4 mm 5 mps 758 mmHg 59%
    13:00 +35°C° 0.7 mm 5 mps 758 mmHg 60%
    14:00 +35°C° 0.7 mm 5 mps 757 mmHg 61%
    15:00 +35°C° 0.7 mm 5 mps 757 mmHg 61%
    16:00 +34°C° 0.3 mm 5 mps 757 mmHg 65%
    17:00 +33°C° 0.3 mm 4 mps 757 mmHg 69%
    18:00 +32°C° 0.3 mm 4 mps 758 mmHg 74%
    19:00 +30°C° 0.1 mm 4 mps 758 mmHg 75%
    20:00 +30°C° 0.1 mm 4 mps 758 mmHg 77%
    21:00 +30°C° 0.1 mm 3 mps 759 mmHg 79%
    22:00 +29°C° 0 mm 3 mps 758 mmHg 80%
    23:00 +29°C° 0 mm 3 mps 758 mmHg 81%

    30 May, Tuesday

    Time Temperature Precipitation Wind Pressure Humidity
    00:00 +29°C° 0 mm 3 mps 758 mmHg 82%
    01:00 +29°C° 0 mm 3 mps 758 mmHg 83%
    02:00 +29°C° 0 mm 3 mps 757 mmHg 83%
    03:00 +29°C° 0 mm 3 mps 757 mmHg 84%
    04:00 +29°C° 0 mm 3 mps 758 mmHg 84%
    05:00 +29°C° 0 mm 3 mps 758 mmHg 84%
    06:00 +29°C° 0 mm 3 mps 759 mmHg 84%
    07:00 +30°C° 0 mm 3 mps 759 mmHg 77%
    08:00 +33°C° 0 mm 3 mps 759 mmHg 70%
    09:00 +34°C° 0 mm 4 mps 760 mmHg 63%
    10:00 +35°C° 0.3 mm 4 mps 759 mmHg 63%
    11:00 +35°C° 0.3 mm 4 mps 759 mmHg 63%
    12:00 +35°C° 0.3 mm 4 mps 758 mmHg 62%
    13:00 +35°C° 0.3 mm 4 mps 758 mmHg 62%
    14:00 +35°C° 0.3 mm 5 mps 757 mmHg 62%
    15:00 +35°C° 0.3 mm 5 mps 757 mmHg 62%
    16:00 +34°C° 0 mm 5 mps 757 mmHg 66%
    17:00 +32°C° 0 mm 5 mps 758 mmHg 71%
    18:00 +30°C° 0 mm 4 mps 758 mmHg 75%
    19:00 +30°C° 0 mm 4 mps 759 mmHg 77%
    20:00 +30°C° 0 mm 4 mps 759 mmHg 79%
    21:00 +29°C° 0 mm 3 mps 760 mmHg 80%
    22:00 +29°C° 0 mm 3 mps 759 mmHg 81%
    23:00 +29°C° 0 mm 3 mps 759 mmHg 82%
    Show more